Flag for China Weather past 2 weeks in Suzhou, Jiangsu, China

Now
64 °F

Clear.


Feels Like: 64 °F
Forecast: 60 / 79 °F
Wind: 10 mph from Southeast

Location: Shanghai Hongqiao Airport

Current Time: Apr 27, 2015 at 1:31:54 AM

Latest Report: Apr 27, 2015 at 1:00 AM


Visibility: 10 mi

Pressure: 30.01 "Hg

Humidity: 52%

Dew point: 46 °F

Location of SuzhouLocation

Historic Weather in Suzhou — Graph

°F

Suzhou temperature yesterday

Maximum temperature yesterday: 82 °F (at 12:00 PM)
Minimum temperature yesterday: 61 °F (at 4:00 AM)
Average temperature yesterday: 71 °F

Past Weeks' High & Low Weather Summary

 TemperatureHumidityPressure
High84 °F (Apr 25, 2:30 PM)94% (Apr 18, 2:00 AM)30.21 "Hg (Apr 18, 2:00 AM)
Low45 °F (Apr 14, 3:30 AM)12% (Apr 23, 3:30 PM)29.59 "Hg (Apr 19, 4:00 PM)
Average63 °F58%29.99 "Hg
* Reported Midnight between Apr 11 and Apr 12 — Midnight between Apr 26 and Apr 27, Suzhou, Weather by CustomWeather, © 2015

Note: Actual official high and low records may vary slightly from our data, if they occured in-between our weather recording intervals... More about our weather records

Advertising

Suzhou weather history for previous 24 hours

 ConditionsComfort  
Time TempWeatherWind HumidityBarometerVisibility
12:00 AM
Mon, Apr 27
64 °FClear.10 mph52%30.01 "Hg10 mi
11:30 PM
Sun, Apr 26
66 °FClear.10 mph49%30.01 "Hg10 mi
11:00 PM66 °FClear.10 mph49%30.04 "Hg10 mi
10:30 PM66 °FClear.10 mph49%30.04 "Hg10 mi
10:00 PM66 °FClear.8 mph49%30.04 "Hg10 mi
9:30 PM66 °FClear.10 mph46%30.04 "Hg10 mi
9:00 PM66 °FClear.10 mph46%30.04 "Hg10 mi
8:30 PM68 °FClear.10 mph43%30.04 "Hg10 mi
8:00 PM68 °FClear.10 mph43%30.04 "Hg10 mi
7:30 PM70 °FClear.13 mph38%30.04 "Hg10 mi
7:00 PM72 °FClear.13 mph36%30.04 "Hg10 mi
6:30 PM72 °FClear.13 mph36%30.04 "Hg10 mi
6:00 PM73 °FSunny.13 mph33%30.04 "Hg10 mi
5:30 PM75 °FSunny.15 mph31%30.01 "Hg10 mi
5:00 PM77 °FSunny.13 mph30%30.01 "Hg10 mi
4:30 PM77 °FSunny.17 mph28%30.01 "Hg10 mi
4:00 PM79 °FSunny.15 mph26%30.04 "Hg10 mi
3:30 PM79 °FSunny.15 mph28%30.04 "Hg10 mi
3:00 PM81 °FSunny.15 mph26%30.04 "Hg10 mi
2:30 PM79 °FPassing clouds.15 mph28%30.04 "HgN/A
2:00 PM79 °FSunny.15 mph32%30.07 "Hg10 mi
1:30 PM81 °FPassing clouds.15 mph28%30.07 "HgN/A
1:00 PM81 °FSunny.13 mph26%30.09 "Hg10 mi
12:30 PM81 °FSunny.13 mph30%30.09 "Hg10 mi
12:00 PM82 °FSunny.13 mph30%30.09 "Hg10 mi
11:30 AM81 °FSunny.13 mph30%30.09 "Hg10 mi
11:00 AM79 °FPassing clouds.10 mph34%30.12 "HgN/A
10:30 AM79 °FSunny.13 mph34%30.12 "Hg10 mi
10:00 AM77 °FPassing clouds.10 mph34%30.12 "HgN/A
9:30 AM75 °FPassing clouds.10 mph36%30.12 "HgN/A
9:00 AM73 °FSunny.10 mph38%30.15 "Hg10 mi
8:30 AM72 °FPassing clouds.10 mph44%30.12 "HgN/A
8:00 AM70 °FSunny.10 mph50%30.12 "Hg10 mi
7:30 AM68 °FSunny.8 mph53%30.12 "Hg10 mi
7:00 AM66 °FSunny.8 mph60%30.12 "Hg10 mi
6:30 AM63 °FSunny.6 mph68%30.09 "Hg10 mi
6:00 AM63 °FPassing clouds.3 mph68%30.09 "HgN/A
5:00 AM61 °FClear.3 mph72%30.09 "Hg10 mi
4:30 AM63 °FPassing clouds.3 mph73%30.09 "HgN/A
4:00 AM61 °FClear.3 mph77%30.09 "Hg10 mi
3:30 AM63 °FClear.1 mph73%30.09 "Hg10 mi
3:00 AM63 °FClear.3 mph73%30.09 "Hg10 mi
2:30 AM63 °FClear.3 mph68%30.09 "Hg10 mi
2:00 AM63 °FClear.1 mph68%30.09 "Hg10 mi
1:30 AM63 °FPassing clouds.3 mph68%30.09 "HgN/A
1:00 AM64 °FClear.3 mph60%30.09 "Hg10 mi
Weather by CustomWeather, © 2015

See weather overviewHow to use our weather pages